Orbital Elements at Epoch 2459200.5 (2020-Dec-17.0) TDB
Reference: JPL 20 (heliocentric ecliptic J2000)
Element | Value | Uncertainty (1-sigma) | Units |
e | .248735402788496 | 5.1243e-08 | |
a | 2.533299325998724 | 1.2956e-08 | au |
q | 1.903178097762606 | 1.3177e-07 | au |
i | 4.256382820872122 | 6.2854e-06 | deg |
node | 328.825749932253 | 5.2066e-05 | deg |
peri | 32.09819075842875 | 5.3997e-05 | deg |
M | 264.4268278401054 | 1.8013e-05 | deg |
tp | 2459591.486433401983 (2022-Jan-11.98643340) | 7.6051e-05 | TDB |
period | 1472.747140685355 4.03 | 1.1298e-05 3.093e-08 | d yr |
n | .2444411467894421 | 1.8752e-09 | deg/d |
Q | 3.163420554234842 | 1.6178e-08 | au |
|
| | Orbit Determination Parameters
Additional Information
|